Find Qianfan Jigui 02-06

NORAD ID: 61557 Int'l Des: 2024-185 Owner: YUANX Country: CN Constellation: qianfan operational
LEOCIRCULARPOLAR

リアルタイム位置

3D地球を読み込み中...

Qianfan Jigui 02-06について

説明を読み込み中...

次回通過

Passes for default location (London). Set your location on the main map for personalized predictions.

高度履歴

Loading altitude history...

軌道要素

1 61557U 24185F 26104.94417236 .00000299 00000-0 12387-3 0 9997
2 61557 88.9790 62.7511 0006492 254.7517 105.2957 14.23993713 87557
Epoch: Apr 14, 2026 • Age: 7 hours

現在のステータス

高度 825.7 km
速度 7.44 km/s
衛星直下点 61.13°N, 51.99°W
打ち上げ日 Oct 15, 2024
運用期間 1.4 years
タイプ internet

技術仕様

分類 Payload
質量 267.00 kg
乾燥質量 267.00 kg
総質量 267.00 kg
長さ 0.30 m
直径 3.00 m
スパン 10.00 m
形状 Box+pan
製造者 GESIH/SECM
バスタイプ Qianfan
フェーズステータス In Orbit
所有者/国 YUANX/CN

Most Searched